Location: Newark
(52.3500°N, 175.9667°E)
Time: 01:54:54
(UTC+00:00)

Vanguard 3 - All Passes

Search period start: 21 April 2021 00:00
Search period end: 01 May 2021 00:00
Orbit: 508 x 3262 km, 33.3° (Epoch: 20 April)

Date Brightness Start Highest point End Pass type
(mag) Time Alt. Az. Time Alt. Az. Time Alt. Az.
27 Apr - 12:08:08 10° SSW 12:10:55 12° S 12:13:16 10° SSE night (unlit)
28 Apr - 10:53:10 10° SSW 10:57:10 13° S 11:00:26 10° SSE visible
28 Apr - 13:05:36 10° SSW 13:07:54 12° SSW 13:09:53 10° S night (unlit)
29 Apr - 09:38:53 10° S 09:43:09 13° SSE 09:46:41 10° SE visible
29 Apr - 11:49:44 10° SW 11:54:22 15° S 11:57:57 10° SSE visible
30 Apr - 08:26:24 10° S 08:28:51 11° SSE 08:31:06 10° SE visible
30 Apr - 10:34:19 10° SSW 10:40:31 17° S 10:45:09 10° SE visible
30 Apr - 12:47:38 10° SW 12:51:20 14° SSW 12:54:19 10° SSE visible
